This demonstration page uses our WeatherBlox Daily Observations layout. Learn more.

Left ArrowRight Arrow

53.62937, 11.41316

Hourly Observations for April 8, 2022

Temp ( °F °C ) Dew Point ( °F °C ) Humidity (%) Winds ( mph kmh ) Pressure ( in mb ) Visibility ( mi km ) Precip ( " mm )
12:20 am 00:20 Mostly Cloudy 43 6 39 4 87 87 WSW 15 24 28.94 980 30 48 N/A
12:50 am 00:50 Mostly Cloudy 43 6 39 4 87 87 W 14 22 28.97 981 30 48 N/A
1:20 am 01:20 Mostly Cloudy 43 6 37 3 81 81 W 16 26 29.00 982 30 48 N/A
1:50 am 01:50 Mostly Cloudy 41 5 36 2 81 81 WNW 17 28 29.03 983 30 48 N/A
2:20 am 02:20 Cloudy 41 5 36 2 81 81 WNW 14 22 29.06 984 30 48 N/A
2:50 am 02:50 Mostly Cloudy 41 5 34 1 76 76 W 12 19 29.09 985 30 48 N/A
3:20 am 03:20 Mostly Cloudy 41 5 36 2 81 81 W 10 17 29.12 986 30 48 N/A
3:50 am 03:50 Mostly Cloudy 41 5 36 2 81 81 W 12 19 29.15 987 30 48 N/A
4:20 am 04:20 Cloudy 41 5 36 2 81 81 W 13 20 29.15 987 30 48 N/A
4:50 am 04:50 Mostly Cloudy 41 5 36 2 81 81 W 13 20 29.18 988 30 48 N/A
5:20 am 05:20 Mostly Cloudy 41 5 36 2 81 81 W 12 19 29.18 988 30 48 N/A
5:50 am 05:50 Mostly Cloudy 41 5 34 1 76 76 W 12 19 29.21 989 30 48 N/A
6:20 am 06:20 Mostly Clear 41 5 32 0 70 70 W 12 19 29.21 989 30 48 N/A
6:50 am 06:50 Mostly Sunny 41 5 30 -1 66 66 W 12 19 29.24 990 7 11 N/A
7:20 am 07:20 Mostly Sunny 39 4 30 -1 70 70 W 12 19 29.27 991 7 11 N/A
7:50 am 07:50 Mostly Sunny 39 4 30 -1 70 70 WSW 10 17 29.27 991 7 11 N/A
8:20 am 08:20 Mostly Sunny 41 5 32 0 70 70 WSW 10 17 29.27 991 7 11 N/A
8:50 am 08:50 Mostly Sunny 41 5 34 1 76 76 WSW 12 19 29.30 992 7 11 N/A
9:20 am 09:20 Partly Cloudy 41 5 34 1 76 76 WSW 14 22 29.30 992 30 48 N/A
9:50 am 09:50 Mostly Sunny 43 6 36 2 76 76 WSW 14 22 29.30 992 30 48 N/A
10:20 am 10:20 Partly Cloudy 43 6 34 1 71 71 WSW 16 26 29.30 992 30 48 N/A
10:50 am 10:50 Mostly Cloudy 45 7 34 1 66 66 WSW 14 22 29.30 992 30 48 N/A
11:20 am 11:20 Partly Cloudy 43 6 37 3 81 81 WSW 14 22 29.33 993 30 48 N/A
11:50 am 11:50 Mostly Sunny 46 8 34 1 62 62 WSW 16 26 29.32 993 30 48 N/A
12:20 pm 12:20 Partly Cloudy with Showers Nearby 45 7 30 -1 57 57 W 20 31 29.32 993 30 48 N/A
12:50 pm 12:50 Partly Cloudy with Light Showers 41 5 34 1 76 76 WSW 14 22 29.33 993 30 48 N/A
1:20 pm 13:20 Partly Cloudy 46 8 36 2 66 66 W 13 20 29.30 992 30 48 N/A
1:50 pm 13:50 Mostly Sunny 48 9 30 -1 50 50 WSW 17 28 29.30 992 30 48 N/A
2:20 pm 14:20 Mostly Sunny 48 9 28 -2 46 46 W 17 28 29.30 992 30 48 N/A
2:50 pm 14:50 Partly Cloudy 50 10 30 -1 47 47 W 16 26 29.29 992 30 48 N/A
3:20 pm 15:20 Mostly Sunny 50 10 28 -2 43 43 W 17 28 29.29 992 7 11 N/A
3:50 pm 15:50 Partly Cloudy 48 9 32 0 54 54 WSW 17 28 29.30 992 30 48 N/A
4:20 pm 16:20 Partly Cloudy 48 9 27 -3 43 43 WNW 18 30 29.30 992 30 48 N/A
4:50 pm 16:50 Mostly Sunny 48 9 21 -6 34 34 W 17 28 29.30 992 7 11 N/A
5:20 pm 17:20 Mostly Sunny 48 9 19 -7 32 32 W 17 28 29.30 992 7 11 N/A
5:50 pm 17:50 Mostly Sunny 48 9 23 -5 37 37 W 14 22 29.30 992 7 11 N/A
6:20 pm 18:20 Partly Cloudy 46 8 30 -1 53 53 W 14 22 29.32 993 30 48 N/A
6:50 pm 18:50 Mostly Sunny 45 7 30 -1 57 57 W 12 19 29.32 993 30 48 N/A
7:20 pm 19:20 Mostly Sunny 45 7 30 -1 57 57 W 14 22 29.32 993 30 48 N/A
7:50 pm 19:50 Mostly Sunny 43 6 32 0 66 66 W 9 15 29.33 993 30 48 N/A
8:20 pm 20:20 Mostly Cloudy with Light Rain 41 5 34 1 76 76 W 12 19 29.33 993 30 48 N/A
8:50 pm 20:50 Mostly Cloudy 41 5 34 1 76 76 W 8 13 29.35 994 30 48 N/A
9:20 pm 21:20 Partly Cloudy 41 5 34 1 76 76 W 10 17 29.35 994 30 48 N/A
9:50 pm 21:50 Mostly Cloudy 39 4 36 2 87 87 WNW 12 19 29.36 994 4 7 N/A
10:20 pm 22:20 Mostly Clear 39 4 34 1 81 81 WSW 12 19 29.36 994 30 48 N/A
10:50 pm 22:50 Partly Cloudy 39 4 34 1 81 81 WSW 8 13 29.36 994 30 48 N/A
11:20 pm 23:20 Partly Cloudy 37 3 34 1 87 87 W 10 17 29.36 994 30 48 N/A
11:50 pm 23:50 Mostly Clear 37 3 34 1 87 87 WSW 7 11 29.36 994 30 48 N/A

Powered by AerisWeather